Location: Carrières
(48.9495°N, 2.0407°E)
Time: 19:46:17
(UTC+00:00)

Transit 2A Rocket - Pass Details

Date: 29 April 2024
Orbit: 585 x 908 km, 66.7° (Epoch: 18 May)

Event Time Altitude Azimuth Distance (km) Brightness Sun altitude
Rises 11:50:00 0° 272° (W) 3,005 8.1 55.8°
Reaches altitude 10° 11:52:58 10° 292° (WNW) 2,155 7.3 55.8°
Maximum altitude 11:56:16 18° 335° (NNW) 1,763 6.8 55.7°
Drops below altitude 10° 11:59:46 10° 17° (NNE) 2,305 7.3 55.7°
Sets 12:03:05 0° 36° (NE) 3,306 8.0 55.6°
